[[{"header":{"parameterUnit":"m.s-1","parameterCategory":1,"la1":30.2991,"la2":30.254,"lo1":-89.0895,"lo2":-89.0444,"dy":0.0017,"dx":0.0017,"nx":28,"ny":28,"refTime":"2025-03-17T09:00:00:Z","depth":0,"parameterNumber":2,"parameterNumberName":"U-component_of_WINDS"},"data":[0,0,0,0,0,0,0,0,0,0,0,0,0,0,0,0,0,0,0,0,0,0,0,0,0,0,0,0,0,0,0,0,0,0,0,0,0,0,0,0,0,0,0,0,0,0,0,0,0,0,0,0,0,0,0,0,0,0,-0.7794,-0.7795,0,-0.789,-0.7891,-0.7893,-0.797,-0.7971,-0.7971,-0.7972,-0.8072,-0.8074,-0.8076,0,0,0,0,0,0,0,0,0,0,0,0,0,-0.7678,-0.7679,-0.7794,-0.7795,-0.7796,-0.789,-0.7891,-0.7893,-0.797,-0.7971,-0.7972,-0.7973,-0.8071,-0.8073,-0.8076,0,0,0,0,0,0,0,0,0,0,0,0,0,-0.7747,-0.768,-0.7793,-0.7846,-0.7852,-0.789,-0.7892,-0.7893,-0.797,-0.7971,-0.7972,-0.7973,-0.807,-0.8073,-0.8076,-0.807,0,0,-0.8085,-0.8086,0,0,0,0,0,0,0,0,-0.7743,-0.7751,-0.7837,-0.7842,-0.7849,-0.7919,-0.7887,-0.7953,-0.7969,-0.7925,-0.7972,-0.7974,-0.802,-0.8027,-0.8043,-0.8075,-0.8079,-0.8085,-0.8087,-0.8088,-0.8089,0,0,0,0,0,0,0,-0.7738,-0.7747,-0.7832,-0.7838,-0.7845,-0.7865,-0.7876,-0.79,-0.7965,-0.7929,-0.7935,-0.7945,-0.8024,-0.804,-0.8046,-0.8081,-0.8085,-0.8088,-0.8089,-0.8091,-0.8115,-0.8114,0,0,0,0,0,0,-0.7725,-0.7743,-0.7829,-0.7835,-0.7797,-0.7866,-0.7879,-0.7895,-0.7965,-0.7976,-0.7944,-0.7948,-0.8034,-0.8042,-0.8049,-0.8048,-0.8088,-0.8091,-0.8092,-0.8116,-0.8115,-0.8114,0,0,0,0,0,0,-0.7722,-0.7732,-0.7825,-0.779,-0.7804,-0.7867,-0.7885,-0.7897,-0.7913,-0.7976,-0.7988,-0.7948,-0.8036,-0.8045,-0.8065,-0.8053,-0.8092,-0.8095,-0.8117,-0.8116,-0.8114,-0.8045,0,0,0,0,0,0,-0.7718,-0.773,-0.7728,-0.779,-0.7805,-0.7838,-0.7885,-0.7898,-0.7918,-0.7924,-0.7984,-0.7994,-0.8037,-0.806,-0.8068,-0.8058,-0.8097,-0.8119,-0.8117,-0.8115,-0.8049,-0.8041,-0.8035,0,0,0,0,0,-0.7714,-0.7705,-0.7728,-0.7738,-0.7804,-0.7837,-0.7846,-0.7895,-0.7916,-0.7915,-0.7956,-0.7993,-0.8053,-0.8062,-0.8071,-0.8061,-0.812,-0.8117,-0.8115,-0.8052,-0.8043,-0.8035,0,0,0,0,0,0,-0.764,-0.7714,-0.774,-0.775,-0.7787,-0.785,-0.785,-0.7884,-0.7915,-0.792,-0.798,-0.7993,-0.8006,-0.8036,-0.8044,-0.806,-0.8091,-0.809,-0.804,-0.8032,-0.8025,-0.8018,-0.8099,0,0,0,0,0,-0.7625,-0.7645,-0.7709,-0.7712,-0.7729,-0.7786,-0.7803,-0.7837,-0.7878,-0.7894,-0.7936,-0.7974,-0.8002,-0.8019,-0.8048,-0.8054,-0.8068,-0.8052,-0.8045,-0.8039,-0.8038,-0.8044,-0.8038,-0.8106,-0.8106,-0.8106,0,0,-0.7594,-0.7637,-0.7646,-0.7698,-0.7731,-0.7751,-0.7799,-0.7818,-0.7834,-0.7897,-0.7918,-0.795,-0.7997,-0.801,-0.8017,-0.8035,-0.8022,-0.8036,-0.8031,-0.8033,-0.8041,-0.8034,-0.8029,-0.8104,-0.8104,-0.8104,0,0,-0.7549,-0.7582,-0.7589,-0.7621,-0.767,-0.7708,-0.7709,-0.7768,-0.7792,-0.7814,-0.7862,-0.7882,-0.7928,-0.796,-0.7982,-0.7949,-0.7984,-0.7957,-0.7921,-0.7926,-0.7921,-0.7917,-0.7906,-0.7901,-0.7955,-0.7955,-0.7955,0,-0.7504,-0.7536,-0.7589,-0.7606,-0.7627,-0.7685,-0.7693,-0.7722,-0.7777,-0.7791,-0.781,-0.787,-0.7905,-0.7927,-0.7919,-0.7934,-0.7939,-0.795,-0.7918,-0.7914,-0.791,-0.7901,-0.7896,-0.7951,-0.7952,-0.7952,-0.7953,0,-0.748,-0.7501,-0.7501,-0.7553,-0.7575,-0.7587,-0.7643,-0.7659,-0.7692,-0.7728,-0.7751,-0.7795,-0.7835,-0.7842,-0.7875,-0.7869,-0.7878,-0.7906,-0.7939,-0.7899,-0.7891,-0.7888,-0.7946,-0.7948,-0.7949,-0.795,0,0,-0.739,-0.7471,-0.747,-0.7495,-0.7554,-0.7572,-0.7587,-0.7625,-0.7638,-0.7675,-0.769,-0.7728,-0.7755,-0.778,-0.7816,-0.7821,-0.7793,-0.7849,-0.7851,-0.7837,-0.7791,-0.7769,-0.7764,-0.7817,-0.7817,-0.7816,-0.7787,0,-0.7354,-0.7384,-0.7432,-0.7447,-0.7468,-0.7524,-0.7537,-0.7575,-0.7609,-0.7633,-0.7672,-0.7698,-0.7731,-0.7747,-0.7754,-0.7795,-0.7785,-0.7798,-0.7832,-0.7833,-0.7819,-0.776,-0.7737,-0.7708,-0.7784,-0.7784,-0.7783,0,-0.7316,-0.7349,-0.7366,-0.7423,-0.7434,-0.7445,-0.7485,-0.7506,-0.7551,-0.7576,-0.7604,-0.7644,-0.7664,-0.7693,-0.7722,-0.7729,-0.7746,-0.7769,-0.7769,-0.7774,-0.7805,-0.7764,-0.7699,-0.7695,-0.7779,-0.7779,-0.7779,0,-0.7249,-0.7298,-0.7315,-0.7334,-0.7402,-0.7408,-0.7437,-0.7482,-0.7503,-0.7538,-0.7552,-0.7588,-0.7608,-0.7636,-0.7685,-0.7702,-0.7709,-0.7742,-0.7731,-0.773,-0.773,-0.7729,-0.7667,-0.774,-0.774,-0.774,-0.774,0,-0.7204,-0.7212,-0.7286,-0.7296,-0.7307,-0.7363,-0.7373,-0.7407,-0.7447,-0.7465,-0.7515,-0.7532,-0.7596,-0.7619,-0.7658,-0.7676,-0.7685,-0.7706,-0.7717,-0.7702,-0.7699,-0.7714,-0.7718,-0.7739,-0.7739,-0.7739,-0.774,0,-0.7131,-0.7181,-0.7203,-0.7265,-0.7281,-0.7287,-0.734,-0.7353,-0.7391,-0.7413,-0.7422,-0.7482,-0.7513,-0.7565,-0.761,-0.7637,-0.7648,-0.7665,-0.7633,-0.7639,-0.7625,-0.7626,-0.7571,-0.7567,-0.7641,-0.764,-0.7639,0,-0.7099,-0.7107,-0.717,-0.7186,-0.7213,-0.7237,-0.7259,-0.7314,-0.7334,-0.7386,-0.7392,-0.7427,-0.7458,-0.7504,-0.7552,-0.7588,-0.7607,-0.7585,-0.7612,-0.7598,-0.7607,-0.7606,-0.7607,-0.7578,-0.7577,-0.7576,-0.7576,0,-0.7038,-0.7062,-0.7091,-0.7128,-0.7152,-0.7184,-0.7218,-0.7228,-0.7292,-0.7312,-0.7344,-0.7368,-0.7415,-0.7449,-0.7492,-0.7522,-0.756,-0.7567,-0.7566,-0.7552,-0.7533,-0.7543,-0.7616,-0.7568,-0.7569,-0.7569,-0.757,-0.757,-0.6985,-0.6995,-0.7041,-0.7071,-0.7103,-0.7135,-0.715,-0.719,-0.7217,-0.726,-0.7291,-0.7321,-0.7366,-0.7427,-0.7456,-0.748,-0.7497,-0.7496,-0.7496,-0.7495,-0.749,-0.7528,-0.7488,-0.7489,-0.7489,-0.7489,-0.7489,0,-0.6927,-0.6959,-0.6987,-0.7033,-0.7057,-0.709,-0.7131,-0.7149,-0.7175,-0.7213,-0.7243,-0.728,-0.7314,-0.7364,-0.7402,-0.7412,-0.7431,-0.742,-0.742,-0.7427,-0.7472,-0.7469,-0.7405,-0.7405,-0.7405,-0.7405,-0.7405,-0.7405,-0.6899,-0.6918,-0.6948,-0.6983,-0.7016,-0.7045,-0.7066,-0.7095,-0.7127,-0.7166,-0.7194,-0.7227,-0.7271,-0.7312,-0.7345,-0.7359,-0.7371,-0.7355,-0.7375,-0.7416,-0.7424,-0.7431,-0.7429,-0.7357,-0.7357,-0.7328,-0.7327,-0.7327]},{"header":{"parameterUnit":"m.s-1","parameterCategory":1,"la1":30.2991,"la2":30.254,"lo1":-89.0895,"lo2":-89.0444,"dy":0.0017,"dx":0.0017,"nx":28,"ny":28,"refTime":"2025-03-17T09:00:00:Z","depth":0,"parameterNumber":3,"parameterNumberName":"V-component_of_WINDS"},"data":[0,0,0,0,0,0,0,0,0,0,0,0,0,0,0,0,0,0,0,0,0,0,0,0,0,0,0,0,0,0,0,0,0,0,0,0,0,0,0,0,0,0,0,0,0,0,0,0,0,0,0,0,0,0,0,0,0,0,0.6471,0.6472,0,0.6526,0.6526,0.6527,0.6546,0.6546,0.6546,0.6546,0.6599,0.6601,0.6603,0,0,0,0,0,0,0,0,0,0,0,0,0,0.6381,0.6382,0.6471,0.6472,0.6472,0.6526,0.6526,0.6527,0.6546,0.6546,0.6546,0.6546,0.6599,0.6601,0.6603,0,0,0,0,0,0,0,0,0,0,0,0,0,0.6426,0.6383,0.6471,0.6489,0.6491,0.6526,0.6527,0.6527,0.6546,0.6546,0.6546,0.6546,0.6598,0.6601,0.6603,0.6624,0,0,0.661,0.6611,0,0,0,0,0,0,0,0,0.6424,0.6429,0.6485,0.6487,0.649,0.6529,0.6514,0.656,0.6547,0.6525,0.6546,0.6545,0.6576,0.658,0.6591,0.6626,0.6629,0.6611,0.6612,0.6613,0.6614,0,0,0,0,0,0,0,0.642,0.6427,0.6493,0.6486,0.6489,0.6493,0.6499,0.6523,0.6552,0.6527,0.6529,0.6535,0.6577,0.6589,0.6593,0.6629,0.6611,0.6613,0.6614,0.6615,0.6684,0.6684,0,0,0,0,0,0,0.6415,0.6424,0.6491,0.6494,0.6455,0.6495,0.6502,0.6517,0.6551,0.6556,0.6535,0.6536,0.6585,0.659,0.6594,0.6621,0.6613,0.6615,0.6617,0.6683,0.6684,0.6684,0,0,0,0,0,0,0.6413,0.642,0.6489,0.646,0.6469,0.6497,0.6513,0.6518,0.653,0.6558,0.6562,0.6542,0.6585,0.6591,0.6616,0.6623,0.6616,0.6619,0.6683,0.6683,0.6684,0.6674,0,0,0,0,0,0,0.641,0.642,0.6428,0.646,0.647,0.651,0.6514,0.6519,0.6534,0.6535,0.6565,0.657,0.6585,0.6613,0.6619,0.6626,0.6621,0.6682,0.6683,0.6684,0.6674,0.6674,0.6674,0,0,0,0,0,0.6407,0.6423,0.6429,0.6437,0.6482,0.6511,0.6517,0.6535,0.6534,0.6543,0.6561,0.6569,0.6621,0.6615,0.6622,0.663,0.6682,0.6683,0.6684,0.6674,0.6674,0.6674,0,0,0,0,0,0,0.6391,0.6427,0.6434,0.6461,0.6483,0.6514,0.6526,0.6535,0.6556,0.6556,0.6577,0.6583,0.6607,0.6621,0.6614,0.6652,0.6652,0.6654,0.6642,0.6643,0.6643,0.6639,0.6623,0,0,0,0,0,0.6391,0.6412,0.6442,0.6463,0.6474,0.6498,0.6511,0.6523,0.6546,0.6555,0.6575,0.6596,0.6617,0.663,0.6652,0.6676,0.6682,0.6685,0.6685,0.6685,0.6687,0.67,0.6702,0.6687,0.6687,0.6687,0,0,0.639,0.6413,0.6425,0.646,0.6479,0.6499,0.6505,0.6527,0.6542,0.6558,0.6583,0.6598,0.6623,0.6648,0.666,0.666,0.6692,0.6686,0.6686,0.6688,0.6701,0.6703,0.6704,0.6687,0.6687,0.6687,0,0,0.64,0.6419,0.6439,0.6457,0.6484,0.65,0.6505,0.6535,0.6546,0.6571,0.6583,0.6601,0.6638,0.6655,0.6668,0.6684,0.6692,0.669,0.6692,0.6704,0.6706,0.6707,0.6712,0.6714,0.6692,0.6692,0.6692,0,0.6396,0.6428,0.6447,0.6469,0.6484,0.6499,0.6519,0.6535,0.6568,0.6577,0.6578,0.6624,0.6642,0.667,0.6674,0.6685,0.669,0.6687,0.6704,0.6705,0.6707,0.6712,0.6714,0.6691,0.6691,0.6691,0.6692,0,0.6421,0.6443,0.6455,0.6487,0.6504,0.6524,0.6546,0.656,0.657,0.6586,0.6611,0.6633,0.6659,0.6667,0.6677,0.6697,0.6696,0.67,0.6701,0.6707,0.6713,0.6715,0.6691,0.6691,0.6691,0.6691,0,0,0.6423,0.6465,0.6469,0.6484,0.6515,0.6532,0.6552,0.6578,0.659,0.6611,0.6629,0.6659,0.6663,0.6678,0.669,0.6701,0.6712,0.6704,0.6704,0.6704,0.6735,0.6731,0.6734,0.6717,0.6718,0.6718,0.6732,0,0.6436,0.6474,0.6492,0.6522,0.6542,0.6557,0.6575,0.6596,0.661,0.6629,0.6645,0.6666,0.667,0.6679,0.6691,0.6708,0.6718,0.6707,0.6733,0.6733,0.6726,0.6736,0.6733,0.6746,0.6735,0.6735,0.6735,0,0.6458,0.648,0.6512,0.6541,0.655,0.6565,0.659,0.6608,0.6632,0.6642,0.6658,0.667,0.6691,0.669,0.6719,0.6711,0.6722,0.6732,0.6733,0.6736,0.6735,0.6739,0.6751,0.6752,0.6739,0.6738,0.6738,0,0.6455,0.6493,0.6517,0.6529,0.6563,0.6574,0.6588,0.6612,0.6626,0.6647,0.6656,0.668,0.6692,0.671,0.6727,0.6725,0.6754,0.6754,0.6762,0.6762,0.6768,0.6767,0.6781,0.6775,0.6775,0.6775,0.6775,0,0.6469,0.6487,0.6517,0.6531,0.6553,0.6573,0.6593,0.6608,0.6629,0.6646,0.666,0.6676,0.6698,0.6716,0.673,0.6751,0.6757,0.6765,0.6768,0.6764,0.6763,0.6771,0.6771,0.6776,0.6776,0.6775,0.6775,0,0.647,0.649,0.6517,0.6547,0.6555,0.657,0.6595,0.6609,0.6625,0.6646,0.6653,0.6677,0.6699,0.6718,0.6747,0.6756,0.6778,0.6782,0.6771,0.6772,0.6779,0.6778,0.6799,0.6802,0.6794,0.6794,0.6794,0,0.6477,0.6492,0.6524,0.6537,0.6551,0.6572,0.6587,0.6606,0.6621,0.6648,0.6659,0.6683,0.6703,0.6737,0.6757,0.6779,0.6783,0.6789,0.6787,0.6782,0.6783,0.6782,0.6784,0.6789,0.6789,0.6789,0.6789,0,0.6488,0.6497,0.6518,0.6542,0.656,0.658,0.66,0.661,0.6633,0.6649,0.6672,0.6687,0.6717,0.674,0.6764,0.6778,0.6787,0.679,0.6793,0.6788,0.6781,0.6785,0.6771,0.6789,0.6789,0.6789,0.6789,0.6789,0.6492,0.6506,0.653,0.6553,0.6571,0.6589,0.6604,0.6622,0.6642,0.6668,0.6678,0.6702,0.6724,0.6758,0.6772,0.679,0.6791,0.6796,0.6797,0.6797,0.6797,0.6778,0.6794,0.6795,0.6795,0.6795,0.6795,0,0.6503,0.6519,0.654,0.6569,0.6586,0.6594,0.6617,0.6631,0.6652,0.6672,0.6692,0.6718,0.674,0.6761,0.6784,0.6795,0.6799,0.68,0.6799,0.6802,0.6794,0.6789,0.6796,0.6796,0.6796,0.6796,0.6796,0.6796,0.6511,0.6535,0.6547,0.6579,0.6595,0.6619,0.6631,0.6648,0.6665,0.6694,0.6713,0.6726,0.6747,0.6771,0.6792,0.6797,0.6805,0.6805,0.6811,0.6803,0.6803,0.6803,0.6798,0.6806,0.6806,0.6818,0.6818,0.6818]}]]